Time,TemperatureF,DewpointF,PressureIn,WindDirection,WindDirectionDegrees,WindSpeedMPH,WindSpeedGustMPH,Humidity,HourlyPrecipIn,Conditions,Clouds,dailyrainin,SoftwareType,DateUTC
2013-04-16 00:02:00,45.3,38.8,29.98,NW,325,0.0,10.0,78,0.00,,,0.00,meteohub,2013-04-16 07:02:00,
2013-04-16 00:07:00,45.3,38.8,29.98,NW,320,1.0,10.0,78,0.00,,,0.00,meteohub,2013-04-16 07:07:00,
2013-04-16 00:12:00,45.3,38.8,29.98,NW,326,0.0,10.0,78,0.00,,,0.00,meteohub,2013-04-16 07:12:00,
2013-04-16 00:17:00,45.3,38.5,29.98,NW,322,0.0,10.0,77,0.00,,,0.00,meteohub,2013-04-16 07:17:00,
2013-04-16 00:22:00,45.3,38.5,29.98,NNW,336,7.0,11.0,77,0.00,,,0.00,meteohub,2013-04-16 07:22:00,
2013-04-16 00:27:00,45.1,38.7,29.98,NW,319,1.0,11.0,78,0.00,,,0.00,meteohub,2013-04-16 07:27:00,
2013-04-16 00:32:00,45.1,38.7,29.99,NW,319,6.0,11.0,78,0.00,,,0.00,meteohub,2013-04-16 07:32:00,
2013-04-16 00:37:00,45.1,38.7,29.99,NW,326,0.0,10.0,78,0.00,,,0.00,meteohub,2013-04-16 07:37:00,
2013-04-16 00:42:00,45.1,38.7,29.99,NW,324,1.0,9.0,78,0.00,,,0.00,meteohub,2013-04-16 07:42:00,
2013-04-16 00:47:00,45.1,38.3,29.99,NNW,344,6.0,9.0,77,0.00,,,0.00,meteohub,2013-04-16 07:47:00,
2013-04-16 00:52:00,45.1,38.3,29.99,NW,325,0.0,9.0,77,0.00,,,0.00,meteohub,2013-04-16 07:52:00,
2013-04-16 00:57:00,45.0,38.1,29.99,NW,326,1.0,8.0,77,0.00,,,0.00,meteohub,2013-04-16 07:57:00,
2013-04-16 01:02:00,45.0,38.1,29.99,NW,323,6.0,8.0,77,0.00,,,0.00,meteohub,2013-04-16 08:02:00,
2013-04-16 01:07:00,45.0,38.1,29.99,NW,326,5.0,8.0,77,0.00,,,0.00,meteohub,2013-04-16 08:07:00,
2013-04-16 01:12:00,45.0,38.1,29.99,NW,304,0.0,8.0,77,0.00,,,0.00,meteohub,2013-04-16 08:12:00,
2013-04-16 01:17:00,45.0,38.1,30.00,NW,319,1.0,8.0,77,0.00,,,0.00,meteohub,2013-04-16 08:17:00,
2013-04-16 01:22:00,45.0,38.1,30.00,NW,319,0.0,9.0,77,0.00,,,0.00,meteohub,2013-04-16 08:22:00,
2013-04-16 01:27:00,45.0,38.1,30.00,NW,319,5.0,9.0,77,0.00,,,0.00,meteohub,2013-04-16 08:27:00,
2013-04-16 01:32:00,45.0,38.1,30.00,NW,326,0.0,10.0,77,0.00,,,0.00,meteohub,2013-04-16 08:32:00,
2013-04-16 01:37:00,45.0,38.5,30.00,NW,307,1.0,10.0,78,0.00,,,0.00,meteohub,2013-04-16 08:37:00,
2013-04-16 01:42:00,45.0,38.8,30.00,NNW,328,6.0,10.0,79,0.00,,,0.00,meteohub,2013-04-16 08:42:00,
2013-04-16 01:47:00,45.0,38.8,30.00,NW,307,0.0,8.0,79,0.00,,,0.00,meteohub,2013-04-16 08:47:00,
2013-04-16 01:52:00,44.8,38.7,30.00,NW,323,1.0,8.0,79,0.00,,,0.00,meteohub,2013-04-16 08:52:00,
2013-04-16 01:57:00,44.8,38.7,30.00,NNW,327,0.0,8.0,79,0.00,,,0.00,meteohub,2013-04-16 08:57:00,
2013-04-16 02:02:00,44.8,38.3,30.00,NW,326,0.0,8.0,78,0.00,,,0.00,meteohub,2013-04-16 09:02:00,
2013-04-16 02:07:00,44.6,38.1,30.00,NW,319,0.0,9.0,78,0.00,,,0.00,meteohub,2013-04-16 09:07:00,
2013-04-16 02:12:00,44.6,38.1,30.00,NW,326,0.0,9.0,78,0.00,,,0.00,meteohub,2013-04-16 09:12:00,
2013-04-16 02:17:00,44.6,38.1,30.00,NW,309,0.0,9.0,78,0.00,,,0.00,meteohub,2013-04-16 09:17:00,
2013-04-16 02:22:00,44.4,37.6,30.00,NW,314,0.0,9.0,77,0.00,,,0.00,meteohub,2013-04-16 09:22:00,
2013-04-16 02:27:00,44.4,37.6,30.00,NW,321,0.0,9.0,77,0.00,,,0.00,meteohub,2013-04-16 09:27:00,
2013-04-16 02:32:00,44.4,37.6,30.00,NW,322,0.0,7.0,77,0.00,,,0.00,meteohub,2013-04-16 09:32:00,
2013-04-16 02:37:00,44.4,37.6,30.00,NW,321,1.0,7.0,77,0.00,,,0.00,meteohub,2013-04-16 09:37:00,
2013-04-16 02:42:00,44.4,37.6,30.00,NW,326,0.0,3.0,77,0.00,,,0.00,meteohub,2013-04-16 09:42:00,
2013-04-16 02:47:00,44.4,37.6,30.00,NW,308,1.0,1.0,77,0.00,,,0.00,meteohub,2013-04-16 09:47:00,
2013-04-16 02:53:00,44.4,37.6,30.00,NW,326,1.0,1.0,77,0.00,,,0.00,meteohub,2013-04-16 09:53:00,
2013-04-16 02:58:00,44.4,37.6,30.00,NNW,329,0.0,1.0,77,0.00,,,0.00,meteohub,2013-04-16 09:58:00,
2013-04-16 03:03:00,44.4,37.6,30.01,NW,326,0.0,1.0,77,0.00,,,0.00,meteohub,2013-04-16 10:03:00,
2013-04-16 03:08:00,44.4,37.4,30.01,NW,309,0.0,1.0,76,0.00,,,0.00,meteohub,2013-04-16 10:08:00,
2013-04-16 03:13:00,44.4,37.4,30.00,NW,310,0.0,1.0,76,0.00,,,0.00,meteohub,2013-04-16 10:13:00,
2013-04-16 03:18:00,44.4,37.4,30.01,NW,310,0.0,1.0,76,0.00,,,0.00,meteohub,2013-04-16 10:18:00,
2013-04-16 03:23:00,44.4,37.4,30.01,NW,311,0.0,1.0,76,0.00,,,0.00,meteohub,2013-04-16 10:23:00,
2013-04-16 03:28:00,44.4,37.0,30.01,NW,311,0.0,1.0,75,0.00,,,0.00,meteohub,2013-04-16 10:28:00,
2013-04-16 03:33:00,44.4,37.4,30.01,NW,313,0.0,1.0,76,0.00,,,0.00,meteohub,2013-04-16 10:33:00,
2013-04-16 03:38:00,44.4,37.4,30.01,NW,313,0.0,1.0,76,0.00,,,0.00,meteohub,2013-04-16 10:38:00,
2013-04-16 03:43:00,44.4,37.4,30.01,NW,314,0.0,1.0,76,0.00,,,0.00,meteohub,2013-04-16 10:43:00,
2013-04-16 03:48:00,44.4,37.4,30.01,NW,314,0.0,1.0,76,0.00,,,0.00,meteohub,2013-04-16 10:48:00,
2013-04-16 03:54:00,44.4,37.4,30.01,NW,314,0.0,1.0,76,0.00,,,0.00,meteohub,2013-04-16 10:54:00,
2013-04-16 03:59:00,44.4,37.4,30.01,NW,314,0.0,1.0,76,0.00,,,0.00,meteohub,2013-04-16 10:59:00,
2013-04-16 04:04:00,44.2,37.2,30.01,NW,314,0.0,1.0,76,0.00,,,0.00,meteohub,2013-04-16 11:04:00,
2013-04-16 04:09:00,44.2,36.9,30.01,NW,314,0.0,0.0,75,0.00,,,0.00,meteohub,2013-04-16 11:09:00,
2013-04-16 04:14:00,44.2,36.9,30.02,NW,314,0.0,0.0,75,0.00,,,0.00,meteohub,2013-04-16 11:14:00,
2013-04-16 04:20:00,44.2,36.9,30.02,NW,314,0.0,0.0,75,0.00,,,0.00,meteohub,2013-04-16 11:20:00,
2013-04-16 04:25:00,44.2,36.9,30.02,NW,314,0.0,0.0,75,0.00,,,0.00,meteohub,2013-04-16 11:25:00,
2013-04-16 04:30:00,44.4,37.0,30.02,NW,314,0.0,0.0,75,0.00,,,0.00,meteohub,2013-04-16 11:30:00,
2013-04-16 04:35:00,44.4,37.0,30.03,NW,314,0.0,0.0,75,0.00,,,0.00,meteohub,2013-04-16 11:35:00,
2013-04-16 04:40:00,44.4,37.4,30.03,NW,310,1.0,1.0,76,0.00,,,0.00,meteohub,2013-04-16 11:40:00,
2013-04-16 04:45:00,44.4,37.4,30.03,NNW,343,0.0,2.0,76,0.00,,,0.00,meteohub,2013-04-16 11:45:00,
2013-04-16 04:51:00,44.4,37.4,30.03,NNW,338,1.0,9.0,76,0.00,,,0.00,meteohub,2013-04-16 11:51:00,
2013-04-16 04:56:00,44.6,36.9,30.03,NNW,338,5.0,10.0,74,0.00,,,0.00,meteohub,2013-04-16 11:56:00,
2013-04-16 05:01:00,44.8,36.7,30.03,NNW,333,9.0,10.0,73,0.00,,,0.00,meteohub,2013-04-16 12:01:00,
2013-04-16 05:06:00,45.0,36.5,30.04,North,351,2.0,10.0,72,0.00,,,0.00,meteohub,2013-04-16 12:06:00,
2013-04-16 05:11:00,45.0,36.5,30.04,NNW,348,1.0,9.0,72,0.00,,,0.00,meteohub,2013-04-16 12:11:00,
2013-04-16 05:16:00,45.0,36.5,30.04,North,352,1.0,9.0,72,0.00,,,0.00,meteohub,2013-04-16 12:16:00,
2013-04-16 05:22:00,44.8,36.7,30.04,NNW,346,1.0,9.0,73,0.00,,,0.00,meteohub,2013-04-16 12:22:00,
2013-04-16 05:27:00,44.8,37.4,30.04,NW,314,1.0,8.0,75,0.00,,,0.00,meteohub,2013-04-16 12:27:00,
2013-04-16 05:32:00,44.6,37.6,30.04,NW,326,0.0,8.0,76,0.00,,,0.00,meteohub,2013-04-16 12:32:00,
2013-04-16 05:37:00,44.6,37.6,30.04,NW,326,2.0,7.0,76,0.00,,,0.00,meteohub,2013-04-16 12:37:00,
2013-04-16 05:42:00,44.6,37.6,30.05,NNW,330,1.0,7.0,76,0.00,,,0.00,meteohub,2013-04-16 12:42:00,
2013-04-16 05:47:00,44.8,37.8,30.05,NNW,332,0.0,7.0,76,0.00,,,0.00,meteohub,2013-04-16 12:47:00,
2013-04-16 05:52:00,44.8,37.9,30.05,NNW,332,1.0,8.0,77,0.00,,,0.00,meteohub,2013-04-16 12:52:00,
2013-04-16 05:57:00,44.8,37.8,30.05,NNW,332,1.0,8.0,76,0.00,,,0.00,meteohub,2013-04-16 12:57:00,
2013-04-16 06:02:00,44.8,37.4,30.05,NNW,334,0.0,2.0,75,0.00,,,0.00,meteohub,2013-04-16 13:02:00,
2013-04-16 06:07:00,44.8,37.0,30.05,NNW,335,0.0,6.0,74,0.00,,,0.00,meteohub,2013-04-16 13:07:00,
2013-04-16 06:12:00,45.0,37.2,30.05,NNW,336,2.0,6.0,74,0.00,,,0.00,meteohub,2013-04-16 13:12:00,
2013-04-16 06:17:00,45.1,37.4,30.06,NNW,336,0.0,7.0,74,0.00,,,0.00,meteohub,2013-04-16 13:17:00,
2013-04-16 06:22:00,45.0,37.6,30.06,NNW,337,1.0,7.0,75,0.00,,,0.00,meteohub,2013-04-16 13:22:00,
2013-04-16 06:27:00,45.0,37.6,30.06,NNW,337,1.0,7.0,75,0.00,,,0.00,meteohub,2013-04-16 13:27:00,
2013-04-16 06:32:00,44.8,37.4,30.06,NNW,337,0.0,2.0,75,0.00,,,0.00,meteohub,2013-04-16 13:32:00,
2013-04-16 06:37:00,44.8,37.4,30.06,NNW,337,0.0,2.0,75,0.00,,,0.00,meteohub,2013-04-16 13:37:00,
2013-04-16 06:42:00,44.8,37.4,30.06,NNW,337,0.0,2.0,75,0.00,,,0.00,meteohub,2013-04-16 13:42:00,
2013-04-16 06:47:00,44.6,37.6,30.06,NNW,337,0.0,1.0,76,0.00,,,0.00,meteohub,2013-04-16 13:47:00,
2013-04-16 06:52:00,44.4,37.4,30.06,NNW,337,0.0,1.0,76,0.00,,,0.00,meteohub,2013-04-16 13:52:00,
2013-04-16 06:57:00,44.4,37.4,30.07,NNW,337,0.0,0.0,76,0.00,,,0.00,meteohub,2013-04-16 13:57:00,
2013-04-16 07:02:00,44.4,37.4,30.07,NNW,337,0.0,0.0,76,0.00,,,0.00,meteohub,2013-04-16 14:02:00,
2013-04-16 07:07:00,44.8,37.8,30.07,NNW,337,0.0,0.0,76,0.00,,,0.00,meteohub,2013-04-16 14:07:00,
2013-04-16 07:12:00,45.0,37.9,30.07,NNW,337,0.0,0.0,76,0.00,,,0.00,meteohub,2013-04-16 14:12:00,
2013-04-16 07:17:00,45.1,38.3,30.07,NNW,337,0.0,0.0,77,0.00,,,0.00,meteohub,2013-04-16 14:17:00,
2013-04-16 07:22:00,45.1,38.3,30.08,NNW,337,0.0,0.0,77,0.00,,,0.00,meteohub,2013-04-16 14:22:00,
2013-04-16 07:27:00,45.3,38.8,30.08,NNW,337,0.0,0.0,78,0.00,,,0.00,meteohub,2013-04-16 14:27:00,
2013-04-16 07:32:00,45.9,39.0,30.08,NNW,337,0.0,0.0,77,0.00,,,0.00,meteohub,2013-04-16 14:32:00,
2013-04-16 07:37:00,45.9,38.7,30.08,NNW,337,0.0,0.0,76,0.00,,,0.00,meteohub,2013-04-16 14:37:00,
2013-04-16 07:42:00,46.0,38.8,30.08,NNW,337,0.0,0.0,76,0.00,,,0.00,meteohub,2013-04-16 14:42:00,
2013-04-16 07:47:00,46.0,38.8,30.09,NNW,337,0.0,0.0,76,0.00,,,0.00,meteohub,2013-04-16 14:47:00,
2013-04-16 07:52:00,46.0,38.3,30.09,NNW,337,0.0,0.0,74,0.00,,,0.00,meteohub,2013-04-16 14:52:00,
2013-04-16 07:57:00,46.6,38.5,30.09,NNW,337,0.0,1.0,73,0.00,,,0.00,meteohub,2013-04-16 14:57:00,
2013-04-16 08:02:00,46.9,38.3,30.09,NNW,337,2.0,2.0,72,0.00,,,0.00,meteohub,2013-04-16 15:02:00,
2013-04-16 08:07:00,47.1,38.1,30.09,NNW,337,0.0,2.0,71,0.00,,,0.00,meteohub,2013-04-16 15:07:00,
2013-04-16 08:13:00,47.5,38.5,30.09,NNW,337,0.0,2.0,71,0.00,,,0.00,meteohub,2013-04-16 15:13:00,
2013-04-16 08:18:00,47.8,38.5,30.09,NNW,337,2.0,2.0,70,0.00,,,0.00,meteohub,2013-04-16 15:18:00,
2013-04-16 08:23:00,48.0,37.9,30.09,NNW,337,0.0,4.0,68,0.00,,,0.00,meteohub,2013-04-16 15:23:00,
2013-04-16 08:28:00,48.2,38.1,30.09,NW,316,0.0,4.0,68,0.00,,,0.00,meteohub,2013-04-16 15:28:00,
2013-04-16 08:33:00,48.6,38.5,30.10,NW,317,1.0,4.0,68,0.00,,,0.00,meteohub,2013-04-16 15:33:00,
2013-04-16 08:38:00,48.7,37.9,30.10,NW,317,0.0,4.0,66,0.00,,,0.00,meteohub,2013-04-16 15:38:00,
2013-04-16 08:43:00,48.9,38.1,30.10,NW,317,0.0,4.0,66,0.00,,,0.00,meteohub,2013-04-16 15:43:00,
2013-04-16 08:49:00,49.5,38.1,30.10,NW,317,0.0,4.0,65,0.00,,,0.00,meteohub,2013-04-16 15:49:00,
2013-04-16 08:54:00,49.6,37.9,30.10,NW,316,0.0,3.0,64,0.00,,,0.00,meteohub,2013-04-16 15:54:00,
2013-04-16 08:59:00,49.6,37.6,30.10,WNW,303,4.0,5.0,63,0.00,,,0.00,meteohub,2013-04-16 15:59:00,
2013-04-16 09:04:00,49.6,37.6,30.10,WNW,300,4.0,5.0,63,0.00,,,0.00,meteohub,2013-04-16 16:04:00,
2013-04-16 09:09:00,49.8,37.4,30.10,WNW,296,2.0,5.0,62,0.00,,,0.00,meteohub,2013-04-16 16:09:00,
2013-04-16 09:14:00,50.2,36.3,30.10,WNW,288,3.0,5.0,59,0.00,,,0.00,meteohub,2013-04-16 16:14:00,
2013-04-16 09:19:00,50.5,37.2,30.10,WNW,302,5.0,5.0,60,0.00,,,0.00,meteohub,2013-04-16 16:19:00,
2013-04-16 09:24:00,50.5,37.6,30.10,WNW,285,5.0,5.0,61,0.00,,,0.00,meteohub,2013-04-16 16:24:00,
2013-04-16 09:29:00,50.4,38.7,30.10,WNW,295,2.0,6.0,64,0.00,,,0.00,meteohub,2013-04-16 16:29:00,
2013-04-16 09:34:00,50.4,38.3,30.10,WNW,294,2.0,6.0,63,0.00,,,0.00,meteohub,2013-04-16 16:34:00,
2013-04-16 09:40:00,50.5,38.5,30.10,NW,307,0.0,6.0,63,0.00,,,0.00,meteohub,2013-04-16 16:40:00,
2013-04-16 09:45:00,50.5,36.7,30.10,West,280,4.0,7.0,59,0.00,,,0.00,meteohub,2013-04-16 16:45:00,
2013-04-16 09:50:00,50.5,37.9,30.10,West,267,3.0,7.0,62,0.00,,,0.00,meteohub,2013-04-16 16:50:00,
2013-04-16 09:55:00,50.7,38.1,30.10,NW,313,4.0,8.0,62,0.00,,,0.00,meteohub,2013-04-16 16:55:00,
2013-04-16 10:01:00,50.9,39.2,30.11,WNW,295,1.0,8.0,64,0.00,,,0.00,meteohub,2013-04-16 17:01:00,
2013-04-16 10:06:00,50.9,37.9,30.11,WNW,287,2.0,8.0,61,0.00,,,0.00,meteohub,2013-04-16 17:06:00,
2013-04-16 10:11:00,51.1,38.5,30.11,NW,320,4.0,6.0,62,0.00,,,0.00,meteohub,2013-04-16 17:11:00,
2013-04-16 10:16:00,51.1,37.8,30.11,NW,320,1.0,6.0,60,0.00,,,0.00,meteohub,2013-04-16 17:16:00,
2013-04-16 10:22:00,51.4,38.5,30.11,NW,310,3.0,8.0,61,0.00,,,0.00,meteohub,2013-04-16 17:22:00,
2013-04-16 10:27:00,51.3,39.6,30.11,NW,323,3.0,8.0,64,0.00,,,0.00,meteohub,2013-04-16 17:27:00,
2013-04-16 10:32:00,51.3,38.7,30.11,NW,325,0.0,6.0,62,0.00,,,0.00,meteohub,2013-04-16 17:32:00,
2013-04-16 10:37:00,51.6,36.9,30.11,NW,313,4.0,6.0,57,0.00,,,0.00,meteohub,2013-04-16 17:37:00,
2013-04-16 10:42:00,51.8,37.9,30.11,NW,311,2.0,6.0,59,0.00,,,0.00,meteohub,2013-04-16 17:42:00,
2013-04-16 10:47:00,52.3,39.4,30.11,WNW,283,1.0,5.0,61,0.00,,,0.00,meteohub,2013-04-16 17:47:00,
2013-04-16 10:52:00,52.3,38.8,30.11,WNW,283,1.0,8.0,60,0.00,,,0.00,meteohub,2013-04-16 17:52:00,
2013-04-16 10:57:00,52.3,37.6,30.12,WNW,302,2.0,8.0,57,0.00,,,0.00,meteohub,2013-04-16 17:57:00,
2013-04-16 11:02:00,52.5,38.7,30.11,WNW,289,2.0,7.0,59,0.00,,,0.00,meteohub,2013-04-16 18:02:00,
2013-04-16 11:07:00,52.9,39.4,30.12,West,280,2.0,9.0,60,0.00,,,0.00,meteohub,2013-04-16 18:07:00,
2013-04-16 11:12:00,53.2,38.5,30.12,NNW,341,6.0,9.0,57,0.00,,,0.00,meteohub,2013-04-16 18:12:00,
2013-04-16 11:17:00,53.4,38.5,30.12,West,280,7.0,9.0,57,0.00,,,0.00,meteohub,2013-04-16 18:17:00,
2013-04-16 11:22:00,53.4,37.6,30.12,WSW,258,1.0,8.0,55,0.00,,,0.00,meteohub,2013-04-16 18:22:00,
2013-04-16 11:27:00,53.8,41.0,30.12,West,261,2.0,8.0,62,0.00,,,0.00,meteohub,2013-04-16 18:27:00,
2013-04-16 11:32:00,54.1,37.4,30.12,WNW,290,1.0,10.0,53,0.00,,,0.00,meteohub,2013-04-16 18:32:00,
2013-04-16 11:37:00,54.7,40.6,30.12,NNW,329,0.0,10.0,59,0.00,,,0.00,meteohub,2013-04-16 18:37:00,
2013-04-16 11:42:00,54.0,40.5,30.12,WNW,296,2.0,10.0,60,0.00,,,0.00,meteohub,2013-04-16 18:42:00,
2013-04-16 11:47:00,53.4,40.3,30.12,West,270,0.0,9.0,61,0.00,,,0.00,meteohub,2013-04-16 18:47:00,
2013-04-16 11:52:00,53.8,38.8,30.12,WNW,301,2.0,9.0,57,0.00,,,0.00,meteohub,2013-04-16 18:52:00,
2013-04-16 11:57:00,54.1,38.8,30.12,NNW,330,3.0,8.0,56,0.00,,,0.00,meteohub,2013-04-16 18:57:00,
2013-04-16 12:02:00,54.3,39.4,30.12,NNW,333,7.0,12.0,57,0.00,,,0.00,meteohub,2013-04-16 19:02:00,
2013-04-16 12:07:00,54.3,39.4,30.12,NW,307,5.0,12.0,57,0.00,,,0.00,meteohub,2013-04-16 19:07:00,
2013-04-16 12:13:00,54.0,39.0,30.12,NW,326,3.0,12.0,57,0.00,,,0.00,meteohub,2013-04-16 19:13:00,
2013-04-16 12:18:00,54.1,39.7,30.12,West,278,6.0,10.0,58,0.00,,,0.00,meteohub,2013-04-16 19:18:00,
2013-04-16 12:23:00,54.1,41.0,30.12,WNW,300,7.0,11.0,61,0.00,,,0.00,meteohub,2013-04-16 19:23:00,
2013-04-16 12:28:00,54.7,40.6,30.12,NW,305,3.0,11.0,59,0.00,,,0.00,meteohub,2013-04-16 19:28:00,
2013-04-16 12:33:00,54.7,40.6,30.12,North,352,4.0,11.0,59,0.00,,,0.00,meteohub,2013-04-16 19:33:00,
2013-04-16 12:38:00,55.0,39.2,30.11,WNW,295,3.0,10.0,55,0.00,,,0.00,meteohub,2013-04-16 19:38:00,
2013-04-16 12:43:00,55.4,40.5,30.11,West,281,5.0,10.0,57,0.00,,,0.00,meteohub,2013-04-16 19:43:00,
2013-04-16 12:48:00,55.0,41.0,30.11,West,276,4.0,10.0,59,0.00,,,0.00,meteohub,2013-04-16 19:48:00,
2013-04-16 12:53:00,54.7,41.5,30.11,WNW,295,7.0,13.0,61,0.00,,,0.00,meteohub,2013-04-16 19:53:00,
2013-04-16 12:59:00,54.1,41.4,30.11,NW,325,10.0,13.0,62,0.00,,,0.00,meteohub,2013-04-16 19:59:00,
2013-04-16 13:05:00,54.1,41.4,30.11,WNW,284,2.0,13.0,62,0.00,,,0.00,meteohub,2013-04-16 20:05:00,
2013-04-16 13:10:00,54.7,41.5,30.11,NW,319,8.0,11.0,61,0.00,,,0.00,meteohub,2013-04-16 20:10:00,
2013-04-16 13:15:00,54.3,41.2,30.11,NW,326,3.0,11.0,61,0.00,,,0.00,meteohub,2013-04-16 20:15:00,
2013-04-16 13:20:00,54.1,42.3,30.11,West,281,9.0,16.0,64,0.00,,,0.00,meteohub,2013-04-16 20:20:00,
2013-04-16 13:25:00,55.0,42.6,30.11,NW,323,1.0,16.0,63,0.00,,,0.00,meteohub,2013-04-16 20:25:00,
2013-04-16 13:30:00,55.2,42.1,30.11,NNW,340,3.0,10.0,61,0.00,,,0.00,meteohub,2013-04-16 20:30:00,
2013-04-16 13:35:00,54.9,41.7,30.11,WNW,303,5.0,10.0,61,0.00,,,0.00,meteohub,2013-04-16 20:35:00,
2013-04-16 13:41:00,54.3,41.2,30.11,NW,314,0.0,13.0,61,0.00,,,0.00,meteohub,2013-04-16 20:41:00,
2013-04-16 13:46:00,54.7,41.5,30.11,WNW,283,5.0,13.0,61,0.00,,,0.00,meteohub,2013-04-16 20:46:00,
2013-04-16 13:51:00,54.9,41.7,30.10,NNW,331,1.0,12.0,61,0.00,,,0.00,meteohub,2013-04-16 20:51:00,
2013-04-16 13:56:00,54.9,41.7,30.10,West,278,3.0,13.0,61,0.00,,,0.00,meteohub,2013-04-16 20:56:00,
2013-04-16 14:02:00,54.9,42.1,30.11,WNW,287,1.0,16.0,62,0.00,,,0.00,meteohub,2013-04-16 21:02:00,
2013-04-16 14:07:00,55.6,42.3,30.10,WNW,292,1.0,16.0,61,0.00,,,0.00,meteohub,2013-04-16 21:07:00,
2013-04-16 14:12:00,55.2,42.1,30.10,NNW,329,1.0,16.0,61,0.00,,,0.00,meteohub,2013-04-16 21:12:00,
2013-04-16 14:17:00,55.4,42.3,30.10,NW,309,2.0,18.0,61,0.00,,,0.00,meteohub,2013-04-16 21:17:00,
2013-04-16 14:22:00,55.9,41.4,30.10,NNW,328,1.0,18.0,58,0.00,,,0.00,meteohub,2013-04-16 21:22:00,
2013-04-16 14:27:00,55.8,42.1,30.10,North,350,4.0,12.0,60,0.00,,,0.00,meteohub,2013-04-16 21:27:00,
2013-04-16 14:32:00,55.8,42.4,30.10,West,278,0.0,12.0,61,0.00,,,0.00,meteohub,2013-04-16 21:32:00,
2013-04-16 14:37:00,55.2,41.5,30.10,NNW,334,14.0,14.0,60,0.00,,,0.00,meteohub,2013-04-16 21:37:00,
2013-04-16 14:42:00,54.7,42.3,30.10,WNW,283,7.0,17.0,63,0.00,,,0.00,meteohub,2013-04-16 21:42:00,
2013-04-16 14:47:00,54.1,42.6,30.10,WNW,300,3.0,17.0,65,0.00,,,0.00,meteohub,2013-04-16 21:47:00,
2013-04-16 14:52:00,54.0,42.8,30.10,NW,311,2.0,17.0,66,0.00,,,0.00,meteohub,2013-04-16 21:52:00,
2013-04-16 14:58:00,54.0,43.3,30.10,NW,304,1.0,16.0,67,0.00,,,0.00,meteohub,2013-04-16 21:58:00,
2013-04-16 15:03:00,53.8,42.6,30.10,WNW,292,2.0,15.0,66,0.00,,,0.00,meteohub,2013-04-16 22:03:00,
2013-04-16 15:08:00,54.0,43.3,30.10,NNW,345,2.0,21.0,67,0.00,,,0.00,meteohub,2013-04-16 22:08:00,
2013-04-16 15:13:00,54.0,43.3,30.10,NW,304,3.0,21.0,67,0.00,,,0.00,meteohub,2013-04-16 22:13:00,
2013-04-16 15:18:00,54.3,43.2,30.10,WNW,283,1.0,21.0,66,0.00,,,0.00,meteohub,2013-04-16 22:18:00,
2013-04-16 15:23:00,54.3,43.2,30.09,North,352,2.0,16.0,66,0.00,,,0.00,meteohub,2013-04-16 22:23:00,
2013-04-16 15:29:00,55.2,43.7,30.09,NW,309,2.0,16.0,65,0.00,,,0.00,meteohub,2013-04-16 22:29:00,
2013-04-16 15:34:00,54.9,43.3,30.09,NNW,336,3.0,15.0,65,0.00,,,0.00,meteohub,2013-04-16 22:34:00,
2013-04-16 15:39:00,54.9,43.3,30.09,NNW,328,2.0,15.0,65,0.00,,,0.00,meteohub,2013-04-16 22:39:00,
2013-04-16 15:44:00,54.9,43.7,30.09,North,350,10.0,16.0,66,0.00,,,0.00,meteohub,2013-04-16 22:44:00,
2013-04-16 15:49:00,54.9,43.0,30.09,NW,319,8.0,16.0,64,0.00,,,0.00,meteohub,2013-04-16 22:49:00,
2013-04-16 15:54:00,54.9,43.3,30.09,NW,304,2.0,14.0,65,0.00,,,0.00,meteohub,2013-04-16 22:54:00,
2013-04-16 16:00:00,55.0,43.5,30.09,WNW,302,1.0,16.0,65,0.00,,,0.00,meteohub,2013-04-16 23:00:00,
2013-04-16 16:05:00,55.0,43.9,30.09,NW,307,8.0,16.0,66,0.00,,,0.00,meteohub,2013-04-16 23:05:00,
2013-04-16 16:10:00,54.9,43.7,30.09,WNW,298,2.0,14.0,66,0.00,,,0.00,meteohub,2013-04-16 23:10:00,
2013-04-16 16:15:00,54.9,43.7,30.09,NW,308,3.0,16.0,66,0.00,,,0.00,meteohub,2013-04-16 23:15:00,
2013-04-16 16:20:00,55.2,43.7,30.09,NW,304,2.0,16.0,65,0.00,,,0.00,meteohub,2013-04-16 23:20:00,
2013-04-16 16:25:00,55.0,43.2,30.09,WNW,288,4.0,19.0,64,0.00,,,0.00,meteohub,2013-04-16 23:25:00,
2013-04-16 16:30:00,54.9,43.3,30.09,NW,320,7.0,19.0,65,0.00,,,0.00,meteohub,2013-04-16 23:30:00,
2013-04-16 16:35:00,54.7,43.9,30.09,West,268,5.0,19.0,67,0.00,,,0.00,meteohub,2013-04-16 23:35:00,
2013-04-16 16:41:00,54.5,44.2,30.09,NW,309,12.0,21.0,68,0.00,,,0.00,meteohub,2013-04-16 23:41:00,
2013-04-16 16:46:00,54.3,44.1,30.09,WNW,283,2.0,21.0,68,0.00,,,0.00,meteohub,2013-04-16 23:46:00,
2013-04-16 16:51:00,54.5,43.7,30.09,WNW,289,1.0,21.0,67,0.00,,,0.00,meteohub,2013-04-16 23:51:00,
2013-04-16 16:56:00,54.9,43.7,30.09,NW,304,6.0,15.0,66,0.00,,,0.00,meteohub,2013-04-16 23:56:00,
2013-04-16 17:02:00,55.0,43.5,30.09,West,260,4.0,13.0,65,0.00,,,0.00,meteohub,2013-04-17 00:02:00,
2013-04-16 17:07:00,55.2,43.7,30.08,West,270,5.0,15.0,65,0.00,,,0.00,meteohub,2013-04-17 00:07:00,
2013-04-16 17:12:00,55.2,43.3,30.09,WNW,283,6.0,15.0,64,0.00,,,0.00,meteohub,2013-04-17 00:12:00,
2013-04-16 17:17:00,55.0,43.9,30.09,WNW,296,1.0,17.0,66,0.00,,,0.00,meteohub,2013-04-17 00:17:00,
2013-04-16 17:22:00,55.2,43.3,30.09,NW,315,7.0,17.0,64,0.00,,,0.00,meteohub,2013-04-17 00:22:00,
2013-04-16 17:27:00,55.8,43.7,30.09,WNW,291,2.0,17.0,64,0.00,,,0.00,meteohub,2013-04-17 00:27:00,
2013-04-16 17:32:00,55.6,43.5,30.09,WNW,282,1.0,14.0,64,0.00,,,0.00,meteohub,2013-04-17 00:32:00,
2013-04-16 17:37:00,55.6,44.1,30.09,NW,311,1.0,14.0,65,0.00,,,0.00,meteohub,2013-04-17 00:37:00,
2013-04-16 17:42:00,54.9,43.7,30.09,WNW,285,1.0,11.0,66,0.00,,,0.00,meteohub,2013-04-17 00:42:00,
2013-04-16 17:47:00,54.9,43.7,30.09,NW,319,1.0,11.0,66,0.00,,,0.00,meteohub,2013-04-17 00:47:00,
2013-04-16 17:52:00,54.3,43.5,30.09,NNW,341,3.0,10.0,67,0.00,,,0.00,meteohub,2013-04-17 00:52:00,
2013-04-16 17:57:00,53.8,43.9,30.09,NW,315,1.0,9.0,69,0.00,,,0.00,meteohub,2013-04-17 00:57:00,
2013-04-16 18:02:00,53.8,44.2,30.09,NNW,337,0.0,16.0,70,0.00,,,0.00,meteohub,2013-04-17 01:02:00,
2013-04-16 18:07:00,53.8,44.2,30.09,WNW,301,1.0,16.0,70,0.00,,,0.00,meteohub,2013-04-17 01:07:00,
2013-04-16 18:12:00,53.6,44.1,30.09,West,265,0.0,15.0,70,0.00,,,0.00,meteohub,2013-04-17 01:12:00,
2013-04-16 18:17:00,53.4,44.2,30.09,WNW,292,3.0,10.0,71,0.00,,,0.00,meteohub,2013-04-17 01:17:00,
2013-04-16 18:23:00,52.9,44.1,30.09,NW,313,8.0,14.0,72,0.00,,,0.00,meteohub,2013-04-17 01:23:00,
2013-04-16 18:28:00,53.1,44.2,30.09,NW,314,1.0,14.0,72,0.00,,,0.00,meteohub,2013-04-17 01:28:00,
2013-04-16 18:33:00,52.9,44.4,30.09,WNW,299,4.0,14.0,73,0.00,,,0.00,meteohub,2013-04-17 01:33:00,
2013-04-16 18:38:00,52.9,44.4,30.10,NW,318,0.0,13.0,73,0.00,,,0.00,meteohub,2013-04-17 01:38:00,
2013-04-16 18:43:00,52.5,44.4,30.10,NW,313,1.0,13.0,74,0.00,,,0.00,meteohub,2013-04-17 01:43:00,
2013-04-16 18:48:00,52.3,44.2,30.10,West,278,1.0,13.0,74,0.00,,,0.00,meteohub,2013-04-17 01:48:00,
2013-04-16 18:53:00,52.2,44.4,30.10,NNW,338,2.0,6.0,75,0.00,,,0.00,meteohub,2013-04-17 01:53:00,
2013-04-16 18:58:00,51.6,43.9,30.10,WNW,285,1.0,14.0,75,0.00,,,0.00,meteohub,2013-04-17 01:58:00,
2013-04-16 19:03:00,51.3,44.2,30.09,NNW,329,2.0,14.0,77,0.00,,,0.00,meteohub,2013-04-17 02:03:00,
2013-04-16 19:08:00,51.1,44.1,30.10,NW,311,8.0,14.0,77,0.00,,,0.00,meteohub,2013-04-17 02:08:00,
2013-04-16 19:14:00,50.9,44.2,30.10,NW,317,1.0,14.0,78,0.00,,,0.00,meteohub,2013-04-17 02:14:00,
2013-04-16 19:19:00,50.7,44.1,30.10,NW,323,0.0,14.0,78,0.00,,,0.00,meteohub,2013-04-17 02:19:00,
2013-04-16 19:24:00,50.5,44.2,30.10,NW,321,1.0,14.0,79,0.00,,,0.00,meteohub,2013-04-17 02:24:00,
2013-04-16 19:29:00,50.4,44.4,30.10,NNW,338,10.0,16.0,80,0.00,,,0.00,meteohub,2013-04-17 02:29:00,
2013-04-16 19:34:00,50.4,44.4,30.10,NW,326,2.0,16.0,80,0.00,,,0.00,meteohub,2013-04-17 02:34:00,
2013-04-16 19:39:00,50.2,44.2,30.10,NW,312,0.0,16.0,80,0.00,,,0.00,meteohub,2013-04-17 02:39:00,
2013-04-16 19:45:00,50.2,44.2,30.10,NW,313,0.0,13.0,80,0.00,,,0.00,meteohub,2013-04-17 02:45:00,
2013-04-16 19:50:00,49.8,44.2,30.11,WNW,293,1.0,9.0,81,0.00,,,0.00,meteohub,2013-04-17 02:50:00,
2013-04-16 19:55:00,49.6,44.4,30.11,NW,305,1.0,7.0,82,0.00,,,0.00,meteohub,2013-04-17 02:55:00,
2013-04-16 20:00:00,49.5,44.6,30.11,NW,304,0.0,6.0,83,0.00,,,0.00,meteohub,2013-04-17 03:00:00,
2013-04-16 20:05:00,49.3,44.4,30.11,NNW,340,0.0,6.0,83,0.00,,,0.00,meteohub,2013-04-17 03:05:00,
2013-04-16 20:10:00,49.5,44.6,30.11,NNW,342,0.0,3.0,83,0.00,,,0.00,meteohub,2013-04-17 03:10:00,
2013-04-16 20:15:00,49.6,44.1,30.11,NNW,333,8.0,10.0,81,0.00,,,0.00,meteohub,2013-04-17 03:15:00,
2013-04-16 20:20:00,49.8,44.2,30.11,NW,318,3.0,10.0,81,0.00,,,0.00,meteohub,2013-04-17 03:20:00,
2013-04-16 20:25:00,49.8,43.9,30.12,NW,326,1.0,10.0,80,0.00,,,0.00,meteohub,2013-04-17 03:25:00,
2013-04-16 20:31:00,49.8,44.2,30.12,NW,319,6.0,10.0,81,0.00,,,0.00,meteohub,2013-04-17 03:31:00,
2013-04-16 20:36:00,49.8,44.2,30.12,NNW,341,1.0,8.0,81,0.00,,,0.00,meteohub,2013-04-17 03:36:00,
2013-04-16 20:41:00,49.6,44.1,30.12,NNW,341,1.0,8.0,81,0.00,,,0.00,meteohub,2013-04-17 03:41:00,
2013-04-16 20:46:00,49.8,43.9,30.12,NNW,339,1.0,8.0,80,0.00,,,0.00,meteohub,2013-04-17 03:46:00,
2013-04-16 20:51:00,50.0,44.1,30.12,NNW,340,1.0,10.0,80,0.00,,,0.00,meteohub,2013-04-17 03:51:00,
2013-04-16 20:57:00,50.5,43.5,30.13,North,357,0.0,10.0,77,0.00,,,0.00,meteohub,2013-04-17 03:57:00,
2013-04-16 21:00:00,50.5,43.5,30.13,North,357,0.0,10.0,77,0.00,,,0.00,meteohub,2013-04-17 04:00:00,
2013-04-16 21:01:00,50.5,43.5,30.13,North,357,0.0,8.0,77,0.00,,,0.00,meteohub,2013-04-17 04:01:00,
2013-04-16 21:03:00,50.5,43.3,30.13,North,357,0.0,8.0,76,0.00,,,0.00,meteohub,2013-04-17 04:03:00,
2013-04-16 21:04:00,50.5,43.3,30.13,North,357,0.0,8.0,76,0.00,,,0.00,meteohub,2013-04-17 04:04:00,
2013-04-16 21:09:00,50.5,43.5,30.13,North,358,0.0,8.0,77,0.00,,,0.00,meteohub,2013-04-17 04:09:00,
2013-04-16 21:14:00,50.4,43.7,30.13,North,359,0.0,2.0,78,0.00,,,0.00,meteohub,2013-04-17 04:14:00,
2013-04-16 21:19:00,50.2,43.5,30.14,North,359,0.0,2.0,78,0.00,,,0.00,meteohub,2013-04-17 04:19:00,
2013-04-16 21:24:00,50.2,43.5,30.14,North,359,0.0,2.0,78,0.00,,,0.00,meteohub,2013-04-17 04:24:00,
2013-04-16 21:29:00,50.4,43.3,30.14,North,359,0.0,2.0,77,0.00,,,0.00,meteohub,2013-04-17 04:29:00,
2013-04-16 21:34:00,50.4,42.4,30.14,North,359,0.0,1.0,74,0.00,,,0.00,meteohub,2013-04-17 04:34:00,
2013-04-16 21:39:00,50.7,42.1,30.15,North,359,0.0,0.0,72,0.00,,,0.00,meteohub,2013-04-17 04:39:00,
2013-04-16 21:44:00,51.1,41.7,30.15,North,359,0.0,0.0,70,0.00,,,0.00,meteohub,2013-04-17 04:44:00,
2013-04-16 21:50:00,51.4,41.2,30.15,North,359,0.0,0.0,68,0.00,,,0.00,meteohub,2013-04-17 04:50:00,
2013-04-16 21:55:00,51.6,41.0,30.15,North,359,0.0,0.0,67,0.00,,,0.00,meteohub,2013-04-17 04:55:00,
2013-04-16 22:00:00,52.0,40.6,30.15,North,359,0.0,0.0,65,0.00,,,0.00,meteohub,2013-04-17 05:00:00,
2013-04-16 22:05:00,52.2,40.8,30.15,North,359,0.0,0.0,65,0.00,,,0.00,meteohub,2013-04-17 05:05:00,
2013-04-16 22:10:00,52.5,41.2,30.16,North,359,0.0,0.0,65,0.00,,,0.00,meteohub,2013-04-17 05:10:00,
2013-04-16 22:15:00,52.7,40.5,30.16,North,359,0.0,1.0,63,0.00,,,0.00,meteohub,2013-04-17 05:15:00,
2013-04-16 22:20:00,53.1,39.9,30.16,North,359,1.0,1.0,61,0.00,,,0.00,meteohub,2013-04-17 05:20:00,
2013-04-16 22:25:00,53.4,39.4,30.16,North,359,0.0,1.0,59,0.00,,,0.00,meteohub,2013-04-17 05:25:00,
2013-04-16 22:30:00,53.2,39.2,30.16,North,359,0.0,1.0,59,0.00,,,0.00,meteohub,2013-04-17 05:30:00,
2013-04-16 22:35:00,52.9,40.3,30.16,North,359,0.0,1.0,62,0.00,,,0.00,meteohub,2013-04-17 05:35:00,
2013-04-16 22:41:00,52.2,40.3,30.17,North,359,0.0,0.0,64,0.00,,,0.00,meteohub,2013-04-17 05:41:00,
2013-04-16 22:46:00,51.4,39.2,30.17,North,359,0.0,0.0,63,0.00,,,0.00,meteohub,2013-04-17 05:46:00,
2013-04-16 22:51:00,51.3,37.4,30.17,North,359,0.0,0.0,59,0.00,,,0.00,meteohub,2013-04-17 05:51:00,
2013-04-16 22:56:00,51.6,38.1,30.17,North,359,0.0,0.0,60,0.00,,,0.00,meteohub,2013-04-17 05:56:00,
2013-04-16 23:02:00,51.8,37.6,30.17,North,359,0.0,0.0,58,0.00,,,0.00,meteohub,2013-04-17 06:02:00,
2013-04-16 23:07:00,52.2,37.4,30.17,North,359,0.0,0.0,57,0.00,,,0.00,meteohub,2013-04-17 06:07:00,
2013-04-16 23:12:00,52.2,38.3,30.17,North,359,0.0,1.0,59,0.00,,,0.00,meteohub,2013-04-17 06:12:00,
2013-04-16 23:17:00,52.0,40.1,30.17,North,359,0.0,1.0,64,0.00,,,0.00,meteohub,2013-04-17 06:17:00,
2013-04-16 23:22:00,51.4,39.2,30.17,North,359,0.0,0.0,63,0.00,,,0.00,meteohub,2013-04-17 06:22:00,
2013-04-16 23:27:00,51.1,37.8,30.17,North,359,0.0,0.0,60,0.00,,,0.00,meteohub,2013-04-17 06:27:00,
2013-04-16 23:32:00,51.3,33.8,30.17,North,359,0.0,0.0,51,0.00,,,0.00,meteohub,2013-04-17 06:32:00,
2013-04-16 23:37:00,52.0,34.3,30.17,North,359,0.0,0.0,51,0.00,,,0.00,meteohub,2013-04-17 06:37:00,
2013-04-16 23:42:00,52.3,34.2,30.18,North,359,0.0,0.0,50,0.00,,,0.00,meteohub,2013-04-17 06:42:00,
2013-04-16 23:47:00,52.3,34.7,30.18,North,359,0.0,2.0,51,0.00,,,0.00,meteohub,2013-04-17 06:47:00,
2013-04-16 23:52:00,52.2,34.2,30.18,North,359,0.0,2.0,50,0.00,,,0.00,meteohub,2013-04-17 06:52:00,
2013-04-16 23:57:00,52.0,32.9,30.18,North,359,0.0,2.0,48,0.00,,,0.00,meteohub,2013-04-17 06:57:00,